This is the latest recevied weather packets stored in our database for station/object WP4PW. If no packets are shown the sender has not sent any weather packets the latest 10 day(s).
| Time | Temp. | Humidity | Pressure | Rain* | Wind** | Luminosity | Snow |
|---|---|---|---|---|---|---|---|
| 1777754292 | 30° C | 75% | 1018.7 hPa | 0 mm | - | 306 W/m² | - |
| 1777753989 | 29.44° C | 75% | 1018.6 hPa | 0 mm | - | 323 W/m² | - |
| 1777753689 | 30° C | 75% | 1018.5 hPa | 0 mm | - | 339 W/m² | - |
| 1777753387 | 30° C | 72% | 1018.7 hPa | 0 mm | - | 356 W/m² | - |
| 1777753085 | 30.56° C | 72% | 1018.6 hPa | 0 mm | - | 372 W/m² | - |
| 1777752781 | 30° C | 76% | 1018.4 hPa | 0 mm | - | 389 W/m² | - |
| 1777752477 | 30° C | 75% | 1018.6 hPa | 0 mm | - | 405 W/m² | - |
| 1777752173 | 30° C | 75% | 1018.7 hPa | 0 mm | - | 419 W/m² | - |
| 1777751872 | 29.44° C | 77% | 1018.7 hPa | 0 mm | - | 436 W/m² | - |
| 1777751568 | 30° C | 74% | 1018.6 hPa | 0 mm | - | 452 W/m² | - |
| 1777751264 | 29.44° C | 76% | 1018.9 hPa | 0 mm | - | 468 W/m² | - |
| 1777750962 | 30° C | 75% | 1018.8 hPa | 0 mm | - | 483 W/m² | - |
| 1777750657 | 29.44° C | 77% | 1018.9 hPa | 0 mm | - | 498 W/m² | - |
| 1777750355 | 30° C | 78% | 1018.8 hPa | 0 mm | - | 509 W/m² | - |
| 1777750055 | 30° C | 77% | 1018.9 hPa | 0 mm | - | 524 W/m² | - |
| 1777749753 | 30° C | 77% | 1018.9 hPa | 0 mm | - | 538 W/m² | - |
| 1777749449 | 30.56° C | 73% | 1019.1 hPa | 0 mm | - | 553 W/m² | - |
| 1777749147 | 30.56° C | 74% | 1019 hPa | 0 mm | - | 567 W/m² | - |
| 1777748844 | 30° C | 76% | 1019.1 hPa | 0 mm | - | 581 W/m² | - |
| 1777748542 | 30.56° C | 74% | 1019.1 hPa | 0 mm | - | 594 W/m² | - |
| 1777748241 | 30° C | 75% | 1019.3 hPa | 0 mm | - | 608 W/m² | - |
| 1777747938 | 30° C | 75% | 1018.9 hPa | 0 mm | - | 620 W/m² | - |
| 1777747634 | 30° C | 75% | 1019.4 hPa | 0 mm | - | 633 W/m² | - |
| 1777747330 | 30° C | 75% | 1019.4 hPa | 0 mm | - | 648 W/m² | - |
| 1777747027 | 30° C | 74% | 1019.3 hPa | 0 mm | - | 665 W/m² | - |
* Rain latest hour (hover to see other rain measurements)
** Current wind speed in m/s (hover to see current wind gust speed)